Flag for Poland Weather past 2 weeks in Bydgoszcz, Poland

Now
56 °F

Clear.


Feels Like: 56 °F
Forecast: 64 / 92 °F
Wind: 1 mph from East

Location: Torun

Current Time: Aug 3, 2015 at 4:40:09 AM

Latest Report: Aug 3, 2015 at 4:00 AM


Visibility: 22 mi

Pressure: 30.12 "Hg

Humidity: 80%

Dew point: 50 °F

Location of BydgoszczLocation

Historic Weather in Bydgoszcz — Graph

°F

Bydgoszcz temperature yesterday

Maximum temperature yesterday: 82 °F (at 4:00 PM)
Minimum temperature yesterday: 53 °F (at 2:00 AM)
Average temperature yesterday: 69 °F

Past Weeks' High & Low Weather Summary

 TemperatureHumidityPressure
High83 °F (Jul 22, 5:00 PM)99% (Jul 23, 5:00 AM)30.16 "Hg (Jul 23, 5:00 AM)
Low46 °F (Jul 27, 4:00 AM)28% (Aug 2, 2:00 PM)29.59 "Hg (Jul 28, 2:00 PM)
Average65 °F69%29.87 "Hg
* Reported Jul 19 3:00 AM — Aug 3 3:00 AM, Bydgoszcz, Weather by CustomWeather, © 2015

Note: Actual official high and low records may vary slightly from our data, if they occured in-between our weather recording intervals... More about our weather records

Advertising

Bydgoszcz weather history for previous 24 hours

 ConditionsComfort  
Time TempWeatherWind HumidityBarometerVisibility
3:00 AM
Mon, Aug 3
57 °FClear.1 mph75%30.13 "Hg22 mi
2:00 AM58 °FClear.1 mph72%30.14 "Hg25 mi
1:00 AM65 °FClear.2 mph57%30.13 "Hg28 mi
12:00 AM60 °FPassing clouds.1 mph66%30.14 "Hg28 mi
10:00 PM
Sun, Aug 2
72 °FPassing clouds.2 mph40%30.12 "Hg25 mi
9:00 PM74 °FPassing clouds.2 mph36%30.11 "Hg28 mi
8:00 PM78 °FPassing clouds.2 mph33%30.10 "Hg28 mi
7:00 PM81 °FPassing clouds.3 mph31%30.10 "Hg25 mi
6:00 PM82 °FScattered clouds.3 mph28%30.10 "Hg28 mi
5:00 PM82 °FScattered clouds.3 mph29%30.11 "Hg22 mi
4:00 PM82 °FScattered clouds.3 mph28%30.11 "Hg25 mi
3:00 PM82 °FScattered clouds.3 mph29%30.13 "Hg19 mi
2:00 PM81 °FScattered clouds.3 mph28%30.13 "Hg25 mi
1:00 PM80 °FScattered clouds.5 mph30%30.15 "Hg19 mi
12:00 PM78 °FPartly sunny.5 mph34%30.15 "Hg19 mi
11:00 AM75 °FOvercast.5 mph43%30.15 "Hg19 mi
10:00 AM71 °FOvercast.3 mph53%30.15 "Hg19 mi
9:00 AM67 °FOvercast.3 mph58%30.15 "Hg19 mi
8:00 AM62 °FOvercast.3 mph63%30.16 "Hg25 mi
7:00 AM58 °FPartly sunny.2 mph69%30.15 "Hg22 mi
6:00 AM55 °FScattered clouds.2 mph73%30.15 "Hg25 mi
5:00 AM54 °FPassing clouds.2 mph73%30.14 "Hg25 mi
4:00 AM54 °FPassing clouds.2 mph74%30.14 "Hg25 mi
Weather by CustomWeather, © 2015

See weather overviewHow to use our weather pages